Regional Weather Roundup
Issued by NWS

Home | Current Version | Previous Version | Graphics & Text | Print | Product List | Glossary On
Versions: 1 2 3 4 5 6 7 8 9 10 11 12 13 14 15 16 17 18 19 20 21 22 23 24 25 26 27 28 29 30 31 32 33 34 35 36 37 38 39 40 41 42 43 44 45 46 47 48 49 50
000
ASUS43 KMKX 271321
RWRWI

WISCONSIN REGIONAL WEATHER ROUNDUP
NATIONAL WEATHER SERVICE MILWAUKEE/SULLIVAN WI
800 AM CDT TUE SEP 27 2016

NOTE: "FAIR" INDICATES FEW OR NO CLOUDS BELOW 12,000 FEET WITH NO
SIGNIFICANT WEATHER AND/OR OBSTRUCTIONS TO VISIBILITY.

WIZ001-002-006>008-014>016-023>028-271400-
NORTHWEST WISCONSIN

CITY           SKY/WX    TMP DP  RH WIND       PRES   REMARKS
SUPERIOR ARPT  CLOUDY    51  45  78 NW17      29.69F
ASHLAND        CLOUDY    50  47  89 W13       29.65S
HAYWARD        CLOUDY    49  44  83 VRB7      29.70S
SIREN          CLOUDY    49  42  78 W10       29.75F
CUMBERLAND     CLOUDY    46  41  81 W13G18    29.74S
RICE LAKE      CLOUDY    49  42  74 W10G16    29.75F
CHETEK         NOT AVBL
LADYSMITH      CLOUDY    49  45  85 W15       29.72S
EAU CLAIRE     CLOUDY    50  42  74 W14G21    29.75S
MENOMONIE      CLOUDY    50  41  72 W14       29.78S
NEW RICHMOND   CLOUDY    47  40  75 W14G21    29.79S
OSCEOLA        CLOUDY    49  42  76 W15       29.81F
$$

WIZ003>005-009-010-017-018-271400-
NORTH CENTRAL WISCONSIN

CITY           SKY/WX    TMP DP  RH WIND       PRES   REMARKS
MANITOWISH WTR NOT AVBL
ARBOR VITAE    CLOUDY    49  47  93 NW12G20   29.62S
WOODRUFF       CLOUDY    49  47  93 NW12G20   29.62S
RHINELANDER    CLOUDY    48  48 100 W15       29.63S
EAGLE RIVER    CLOUDY    47  46  95 W10       29.59S
LAND O LAKES   DRIZZLE   47  46  93 W12G20    29.59F
PHILLIPS       DRIZZLE   46  46  99 W8        29.66S
TOMAHAWK       DRIZZLE   46  44  91 W8G16     29.66S
MEDFORD        RAIN      47  47 100 W10       29.69S
MERRILL        DRIZZLE   48  46  95 W9        29.68S
$$

WIZ029-030-035-036-043>047-271400-
CENTRAL WISCONSIN

CITY           SKY/WX    TMP DP  RH WIND       PRES   REMARKS
WAUSAU         LGT RAIN  50  43  77 W12       29.67S
MOSINEE        CLOUDY    50  45  81 W12G18    29.70R
MARSHFIELD     CLOUDY    51  41  68 W12       29.71R
STEVENS POINT  CLOUDY    49  42  74 W8G20     29.70S
WAUPACA        CLOUDY    54  43  67 SW10G17   29.70F
WAUTOMA        CLOUDY    51  42  71 W12       29.73S
WISC RAPIDS    CLOUDY    51  43  74 W10       29.73S
CAMP DOUGLAS   PTSUNNY   50  41  71 W13       29.76S
$$

WIZ011>013-019>022-031-037>040-048>050-271400-
NORTHEAST WISCONSIN

CITY           SKY/WX    TMP DP  RH WIND       PRES   REMARKS
ANTIGO         LGT RAIN  47  44  90 W15G22    29.65S
SHAWANO        CLOUDY    55  43  66 W12G17    29.66S
OCONTO         NOT AVBL
STURGEON BAY   LGT RAIN  52  46  80 W12       29.63S
GREEN BAY      CLOUDY    53  45  74 W13G22    29.65F
MANITOWOC      CLOUDY    54  43  66 MISG      29.67F
APPLETON       PTSUNNY   52  39  62 W12G17    29.67S
CLINTONVILLE   NOT AVBL
OSHKOSH        CLOUDY    51  41  68 W9G20     29.69S
$$

WIZ032>034-041-042-053>061-271400-
SOUTHWEST WISCONSIN

CITY           SKY/WX    TMP DP  RH WIND       PRES   REMARKS
LA CROSSE      SUNNY     53  40  61 W14       29.81R
SPARTA         SUNNY     49  41  72 SW5       29.79R
VIROQUA        SUNNY     48  38  66 W9        29.81S
BOSCOBEL       SUNNY     52  39  61 SW7       29.83S
PRAIRIE DU CHI SUNNY     50  37  60 W8        29.86S
PLATTEVILLE    SUNNY     49  41  71 W13       29.85S
$$

WIZ056-057-062-063-064-067-068-271400-
SOUTH CENTRAL WISCONSIN

CITY           SKY/WX    TMP DP  RH WIND       PRES   REMARKS
REEDSBURG      NOT AVBL
BARABOO/DELLS  SUNNY     50  37  61 W10       29.77S
LONE ROCK      SUNNY     51  39  63 W12       29.81R
MINERAL POINT  SUNNY     48  37  66 W12       29.82S
MADISON        MOSUNNY   52  38  58 VRB6      29.77S
MIDDLETON      NOT AVBL
WATERTOWN      SUNNY     51  41  69 W9        29.76S
MONROE         SUNNY     50  36  57 W16       29.82S
JANESVILLE     SUNNY     52  37  58 W9        29.81S
$$

WIZ051-052-058>065-066-070>072-271400-
SOUTHEAST WISCONSIN

CITY           SKY/WX    TMP DP  RH WIND       PRES   REMARKS
MILWAUKEE      MOSUNNY   54  39  57 W14       29.75F
WAUKESHA       SUNNY     48  37  66 W12       29.77S
MILWAUKEE/TIMM SUNNY     52  37  58 SW10      29.76S
RACINE         SUNNY     52  39  61 SW9       29.78F
BURLINGTON     SUNNY     51  37  59 SW13G18   29.78F
KENOSHA        SUNNY     51  40  65 W15       29.78F
FOND DU LAC    CLOUDY    51  40  65 W10G18    29.72S
SHEBOYGAN      CLOUDY    52  40  63 W14       29.70S
WEST BEND      MOSUNNY   50  37  62 W10       29.73S
JUNEAU         SUNNY     48  40  72 SW16      29.75F
$$

LSZ147-162-271400-
LAKE SUPERIOR

STATION/POSITION TIME  TEMP    WIND        PRES    WAVE
                       AIR SEA DIR/SP/G            HT/PER
                 (UTC) (F)     (DEG/KT/KT) (MB)    (FT/S)
W MID LAKE BUOY  1250   50 49  290/ 16/ 19 1000.5R   4/ 5
DEVILS ISLAND    1300   52     280/ 19/ 22 1002.7S
PORT WING        1305   53     270/ 20/ 25 1004.4
SAXON HARBOR     1200   51     240/  7/ 10 1003.7
$$

LMZ867-665-643>646-271400-
LAKE MICHIGAN

STATION/POSITION TIME  TEMP    WIND        PRES    WAVE
                       AIR SEA DIR/SP/G            HT/PER
                 (UTC) (F)     (DEG/KT/KT) (MB)    (FT/S)
CHAMBERS ISLAND  1200   55     230/  8/ 18 1002.0S
N MID LAKE BUOY  1250   57 66  260/ 25/ 31 1000.1S   6/ 6
NORTHPORT PIER   1200   56     280/  7/ 19 1002.0S
KEWAUNEE LAKESHO 1300   54     260/  8/ 13 1003.5F
SHEBOYGAN LAKESH 1300   53     260/ 14/ 18 1005.2F
PORT WASHINGTON  1200   52     250/  8/ 13 1007.5
ATWATER BUOY     1300   55 56  240/ 14/ 17 1007.2F
MILWAUKEE LAKESH 1310   55     260/ 13/ 16   N/A
S MID LAKE BUOY  1250   60 70  260/ 25/ 29 1006.6F   6/ 5
KENOSHA   LAKESH 1300   54     250/ 11/ 16 1008.5F
$$

TC  - TEMPERATURE IN CELSIUS
VSB - VISIBILITY IN STATUTE MILES
WCI - WIND CHILL INDEX
HX  - HEAT INDEX





USA.gov is the U.S. government's official web portal to all federal, state and local government web resources and services.